OKEAN-0
1 25860U 99039A 11158.92827278 .00000270 00000-0 48749-4 0 03485
2 25860 097.8844 125.6294 0001769 049.5282 310.6080 14.73789758639291
NOAA-16
1 26536U 00055A 11159.50660738 .00000094 00000-0 75572-4 0 3261
2 26536 099.1387 189.8713 0011311 060.5979 299.6334 14.12622477552139
NOAA-17
1 27453U 02032A 11159.39487265 .00000032 00000-0 31886-4 0 3156
2 27453 098.3787 199.5087 0011919 170.1157 190.0258 14.24279398465400
NOAA-18
1 28654U 05018A 11159.38097154 -.00000140 00000-0 -52501-4 0 7951
2 28654 098.9956 110.5069 0014999 126.9643 233.2908 14.11479573311686
NOAA-19
1 33591U 09005A 11159.37621903 .00000288 00000-0 18392-3 0 9863
2 33591 098.8260 099.6789 0014323 005.3229 354.8085 14.11174119120149
HUBBLE
1 20580U 90037B 11159.14414120 .00000933 00000-0 57954-4 0 7782
2 20580 028.4698 075.5244 0002924 024.1008 335.9773 15.01382238958296
ISS
1 25544U 98067A 11160.01603044 .00024946 00000-0 17177-3 0 4993
2 25544 051.6450 202.4728 0001007 306.1549 127.2024 15.74467854719628
CO-58
1 28895U 05043F 11159.15653263 .00000350 00000-0 82032-4 0 8932
2 28895 097.9670 035.8943 0016685 248.9127 111.0286 14.60110827298922
FALCON
1 30776U 07006E 11158.95288657 .00002206 00000-0 15669-3 0 01118
2 30776 035.4336 043.1273 0001967 340.8010 019.2629 15.04651204233654
MAST
1 31126U 07012K 11159.50090575 .00000369 00000-0 93301-4 0 1788
2 31126 097.8954 187.2181 0093945 197.1353 162.6673 14.53754239219820
CAPE1
1 31130U 07012P 11158.51451029 .00000277 00000-0 74176-4 0 01965
2 31130 097.8978 183.0697 0101755 210.8277 148.6942 14.52397111219233
COMPASS
1 32787U 08021E 11159.70607319 .00001244 00000-0 16144-3 0 78
2 32787 097.8478 223.6798 0015035 200.3845 159.6751 14.82434289168302
AAUSAT2
1 32788U 08021F 11158.59101183 .00001121 00000-0 14560-3 0 09975
2 32788 097.8485 222.8073 0014639 203.7764 156.2815 14.82616358168150
DO-64
1 32789U 08021G 11159.68316192 .00002423 00000-0 30353-3 0 149
2 32789 097.8571 224.8663 0014953 198.2568 161.8128 14.83089546168325
CO-66
1 32791U 08021J 11159.72095794 .00000682 00000-0 92192-4 0 09
2 32791 097.8491 223.6388 0015340 198.9911 161.0720 14.82123008168253
RS-30
1 32953U 08025A 11159.53522138 .00000010 00000-0 00000 0 0 8048
2 32953 082.5002 168.1014 0020263 048.6740 311.6081 12.43013453138013
TACSAT-3
1 35001U 09028A 11159.54740688 .00018526 00000-0 33547-3 0 6115
2 35001 040.4531 225.2247 0021536 146.8115 213.4058 15.48896945115745
PHARMSAT
1 35002U 09028B 11159.57671834 .00014843 00000-0 27310-3 0 5685
2 35002 040.4691 222.7509 0023561 155.3625 204.8321 15.48508358115775
HAWKSAT1
1 35003U 09028C 11158.45809352 .00073679 00000-0 72387-3 0 06463
2 35003 040.4533 202.1373 0020218 167.4036 192.7297 15.64757653115902
CP6
1 35004U 09028D 11159.41172161 .00107909 00000-0 80262-3 0 6489
2 35004 040.4539 187.9522 0020665 180.2978 179.7776 15.71373053116138
METEOR-M
1 35865U 09049A 11159.70678479 .00000176 00000-0 10000-3 0 4403
2 35865 098.7059 214.9443 0003424 057.2120 302.9344 14.21839302 89380
RS-38
1 35869U 09049E 11159.70790274 .00000177 00000-0 10000-3 0 4338
2 35869 098.7026 214.9817 0005632 057.4822 302.6866 14.22013220 89398
